Location: M?digepalle
(16.1753°N, 80.3496°E)
Time: 07:19:34
(UTC+00:00)

ADEOS Rocket - Pass Details

Date: 29 October 2020
Orbit: 859 x 1306 km, 98.7° (Epoch: 27 November)

Event Time Altitude Azimuth Distance (km) Brightness Sun altitude
Rises 23:17:54 0° 177° (S) 3,540 6.1 -19.0°
Reaches altitude 10° 23:20:24 10° 181° (S) 2,558 5.3 -18.4°
Maximum altitude 23:25:53 55° 258° (WSW) 1,028 2.8 -17.1°
Drops below altitude 10° 23:31:13 10° 336° (NNW) 2,491 4.8 -15.8°
Sets 23:33:38 0° 341° (NNW) 3,439 5.6 -15.3°
